Location: Oshawa
(43.9000°N, 78.8670°W)
Time: 15:56:36
(UTC-05:00)

Altair - Visible Passes

Search period start: 23 November 2014 00:00
Search period end: 03 December 2014 00:00
Orbit: 1501 x 1683 km, 47.2° (Epoch: 23 November)

Date Brightness Start Highest point End Pass type
(mag) Time Alt. Az. Time Alt. Az. Time Alt. Az.
23 Nov 9.3 04:10:21 12° SSW 04:10:21 12° SSW 04:11:05 10° S visible
23 Nov 8.9 17:13:14 10° SSE 17:18:20 16° SE 17:23:26 10° E visible
23 Nov 7.5 19:12:32 10° SW 19:21:21 55° SE 19:22:48 51° ESE visible
23 Nov 8.6 21:16:36 10° WSW 21:20:50 32° W 21:20:50 32° W visible
24 Nov 7.6 18:47:34 10° SW 18:56:17 52° SE 18:59:15 39° E visible
24 Nov 8.1 20:51:27 10° WSW 20:57:17 45° W 20:57:17 45° W visible
25 Nov 7.7 18:22:37 10° SSW 18:31:14 48° SE 18:35:39 29° E visible
25 Nov 7.6 20:26:18 10° WSW 20:33:41 63° W 20:33:41 63° W visible
25 Nov 9.7 22:31:29 10° W 22:31:43 11° WNW 22:31:43 11° WNW visible
26 Nov 7.9 17:57:42 10° SSW 18:06:11 45° SE 18:12:01 21° E visible
26 Nov 7.3 20:01:10 10° WSW 20:10:03 84° WNW 20:10:03 84° WNW visible
26 Nov 9.3 22:06:20 10° W 22:08:05 17° WNW 22:08:05 17° WNW visible
27 Nov 8.0 17:32:48 10° SSW 17:41:09 41° SE 17:48:21 14° ENE visible
27 Nov 7.2 19:36:02 10° WSW 19:45:13 90° NNW 19:46:23 73° ENE visible
27 Nov 9.0 21:41:10 10° W 21:44:24 25° WNW 21:44:24 25° WNW visible
28 Nov 8.1 17:07:56 10° SSW 17:16:07 38° SE 17:24:20 10° ENE visible
28 Nov 7.3 19:10:54 10° WSW 19:20:05 87° SSE 19:22:40 54° ENE visible
28 Nov 8.5 21:16:00 10° W 21:20:42 35° WNW 21:20:42 35° WNW visible
29 Nov 7.3 18:45:47 10° WSW 18:54:57 84° SSE 18:58:57 40° ENE visible
29 Nov 8.1 20:50:50 10° W 20:56:58 47° WNW 20:56:58 47° WNW visible
30 Nov 7.4 18:20:41 10° WSW 18:29:50 81° SSE 18:35:12 29° ENE visible
30 Nov 7.7 20:25:40 10° W 20:33:13 61° WNW 20:33:13 61° WNW visible
30 Nov 9.6 22:30:43 10° WNW 22:31:14 12° WNW 22:31:14 12° WNW visible
01 Dec 7.4 17:55:35 10° WSW 18:04:43 77° SSE 18:11:26 21° ENE visible
01 Dec 7.4 20:00:29 10° W 20:09:27 73° NNW 20:09:27 73° NNW visible
01 Dec 9.3 22:05:35 10° WNW 22:07:28 18° WNW 22:07:28 18° WNW visible
02 Dec 7.5 17:30:30 10° SW 17:39:37 74° SSE 17:47:39 15° ENE visible
02 Dec 7.3 19:35:19 10° W 19:44:30 74° N 19:45:40 66° NE visible
02 Dec 9.0 21:40:26 10° WNW 21:43:41 26° WNW 21:43:41 26° WNW visible
